Regional Weather Roundup
Issued by NWS Grand Forks, ND

Home | Current Version | Previous Version | Graphics & Text | Print | Product List | Glossary On
Versions: 1 2 3 4 5 6 7 8 9 10 11 12 13 14 15 16 17 18 19 20 21 22 23 24 25 26 27 28 29 30 31 32 33 34 35 36 37 38 39 40 41 42 43 44 45 46 47 48 49 50
000
ASUS43 KFGF 260231
RWRFGF
PRAIRIE TO PINES  WEATHER ROUNDUP
NATIONAL WEATHER SERVICE EASTERN NORTH DAKOTA/GRAND FORKS ND
900 PM CDT WED APR 25 2018

 **SATELLITE DATA USED TO AUGMENT SKY COVER AT AUTOMATED STATIONS**
 *****  WEATHER ACROSS EASTERN NORTH DAKOTA  *****

CITY           SKY/WX    TMP DP  RH WIND       PRES   REMARKS
GRAND FORKS    MOCLDY    52  39  61 S8        29.77F
GRAND FRKS AFB FAIR      54  38  53 S10       29.76F
GRAND FRKS NWS   N/A     52  41  65 S6        29.75F
DEVILS LAKE    FAIR      53  30  41 S7        29.75F
FARGO          FAIR      56  36  47 S13       29.84F
WAHPETON ARPT  FAIR      50  36  57 S10       29.89F
$$

 ***** WEATHER ACROSS CENTRAL AND WESTERN NORTH DAKOTA  *****

CITY           SKY/WX    TMP DP  RH WIND       PRES   REMARKS
BISMARCK       FAIR      61  29  29 SW9       29.80R
MINOT          FAIR      59  34  39 NW22G31   29.80R
JAMESTOWN      FAIR      56  31  38 S14       29.79F
MINOT AFB      FAIR      58  35  41 N18       29.80R
GARRISON         N/A     57  33  40 NW8       29.79R
WILLISTON      FAIR      60  28  29 N21       29.92R
DICKINSON      FAIR      54  30  40 NW9       29.85R
HETTINGER      FAIR      50  32  50 NW6       29.88S
$$

 *****  OTHER AIRPORT OBSERVATIONS IN OUR AREA  *****

CITY           SKY/WX    TMP DP  RH WIND       PRES   REMARKS
WALHALLA       FAIR      57  36  44 N17G33    29.76R
GRAFTON AIRPOR FAIR      52  36  54 S12       29.75F
VALLEY CITY AR FAIR      52  37  58 S10       29.83F
CANDO          FAIR      54  30  40 N18       29.78R
CAVALIER APRT    N/A     55  34  44 S7        29.71F
GWINNER          N/A     50  37  62 SW9       29.87R
SHEYENNE NWR     N/A     54  34  47 S7        29.95S
ROLLA          FAIR      52  34  50 N20G26    29.81R
 ***** THE ABOVE OBSERVATIONS ARE NON NWS ARE NOT QUALITY
       CONTROLLED AND MAY MIS-REPORT RAIN FOR SNOW...
$$

  *****  WEATHER ACROSS NORTHERN MINNESOTA  *****

CITY           SKY/WX    TMP DP  RH WIND       PRES   REMARKS
FLAG ISLAND    FAIR      39  32  75 S9        29.76S
WARROAD        FAIR      52  37  58 S6        29.78F
ROSEAU         FAIR     N/A N/A N/A S12       29.77F
HALLOCK        FAIR      55  36  47 S16       29.73F
THF RVR FALLS  FAIR      52  36  54 S13       29.82F
BAUDETTE       FAIR      51  34  52 S7        29.81F
WASKISH        FAIR      52  30  43 S6        29.85F
CROOKSTON      FAIR      54  37  54 S13       29.81F
STEPHEN NDAWN    N/A     55  39  54 S14         N/A
GREENBUSH NDAW   N/A     52  39  62 S12         N/A
$$
  *****  WEATHER ACROSS CENTRAL AND WEST MINNESOTA  *****

CITY           SKY/WX    TMP DP  RH WIND       PRES   REMARKS
FOSSTON        FAIR      46  34  61 S13       29.86S
BEMIDJI        FAIR      50  30  45 S7        29.87F
PARK RAPIDS    FAIR      48  30  49 S8        29.89F
ELBOW LAKE     FAIR      45  38  76 S9        29.93S
WADENA         FAIR      45  30  57 S6        29.92S
DETROIT LAKES  FAIR      46  32  57 CALM      29.90S
MOORHEAD       FAIR      54  36  50 S13G18    29.87S
FERGUS FALLS   FAIR      46  37  71 S10       29.89S
MORRIS MN      FAIR      46  37  71 S7        29.94R
STAPLES        FAIR      45  28  53 S7        29.93F
$$
  *****  WEATHER ELSEWHERE ACROSS MINNESOTA  *****

CITY           SKY/WX    TMP DP  RH WIND       PRES   REMARKS
DULUTH         FAIR      50  21  32 SW7       29.93F
INTRNTL FALLS  FAIR      49  29  46 SW8       29.84F
ELY            FAIR      48  23  37 SW3       29.90R
CLOQUET        FAIR      48  10  21 SW3       29.94S
WHEATON        FAIR      52  34  50 S12       29.93F
BRAINERD       FAIR      51  25  36 S7        29.94F
HIBBING        FAIR      48  24  39 CALM      29.90F
ALEXANDRIA     FAIR      51  31  46 S10       29.95F
SAINT CLOUD    FAIR      48  31  51 VRB7      29.97F
MINNEAPOLIS    MOCLDY    54  30  40 W6        30.00F
$$

  *****  WEATHER ACROSS SOUTH DAKOTA  *****

CITY           SKY/WX    TMP DP  RH WIND       PRES   REMARKS
SIOUX FALLS    CLOUDY    49  32  52 CALM      29.99F
BROOKINGS      FAIR      50  34  54 S7        29.97F
WATERTOWN      FAIR      45  34  65 S9        29.93F
HURON          FAIR      54  35  48 S9        29.93F
SISSETON         N/A     50  38  63 S10       29.90S
ABERDEEN       FAIR      50  35  56 S10       29.89F
MITCHELL       FAIR      52  37  56 S8        29.96F
PIERRE         FAIR      54  32  43 SE12      29.85F
MOBRIDGE       FAIR      55  35  47 SE7       29.81F
RAPID CITY     FAIR      63  24  22 SW7       29.85S
$$

  *****  SOME WEATHER IN NEARBY STATES *****

CITY           SKY/WX    TMP DP  RH WIND       PRES   REMARKS
GLASGOW MT     FAIR      58  29  33 NW15      30.05R
GREAT FALLS MT FAIR      48  34  58 S7        30.21R
CHEYENNE WY    FAIR      54  23  30 SW13      30.04F
SCOTTSBLUFF NE FAIR      56  35  45 SE9       29.92F
OMAHA NE       FAIR      55  32  41 W6        30.02S
DES MOINES IA  FAIR      59  26  28 N6        30.01S
DAVENPORT IA   FAIR      52  27  38 NE6       30.01S
CHICAGO IL     FAIR      42  29  59 NE9       30.04S
EAU CLAIRE WI  FAIR      47  26  44 CALM      30.00R
LA CROSSE WI   FAIR      49  28  44 CALM      30.00S
$$

  *****  SOME NATIONAL WEATHER *****

CITY           SKY/WX    TMP DP  RH WIND       PRES   REMARKS
LA GUARDIA NY  FOG       53  52  96 CALM      29.67S VSB 1/4
RALEIGH NC     FAIR      57  57 100 CALM      29.81R
ATLANTA GA     FAIR      61  49  64 N9        29.92S
NEW ORLEANS LA FAIR      70  62  76 S6        29.95R
OKLAHOMA CITY  MOCLDY    50  42  74 N12       30.11R
ALBUQUERQUE NM FAIR      70  28  21 SW7       30.10S
SALT LAKE CITY MOCLDY    69  30  23 N3        30.07F
LOS ANGELES CA FAIR      59  52  77 W13       30.02S
BOISE ID       FAIR      72  29  20 N7        30.06F
SEATTLE WA     PTSUNNY   71  44  37 N12       30.05F
$$

*** WEATHER ACROSS MANITOBA...SASKATCHEWAN AND ONTARIO ***
                ***ONTARIO***

CITY           SKY/WX    TMP DP  RH WIND       PRES   REMARKS
GERALDTON      MOCLDY    39  25  56 S8        29.85S
THUNDER BAY    MOCLDY    36  28  75 NE6       29.91F
SIOUX LOOKOUT  CLOUDY    46  28  49 S3        29.78S
TORONTO        MOCLDY    39  37  93 NW20      29.80S
BIG TROUT LK   CLOUDY    43  34  70 NW8       29.68R
PICKLE LAKE    CLOUDY    50  27  40 SW14G21   29.68F
DRYDEN         CLEAR     50  30  46 SW8       29.78F
KENORA         MOCLDY    50  32  50 S10       29.75F
$$
                *** MANITOBA***

CITY           SKY/WX    TMP DP  RH WIND       PRES   REMARKS
BRANDON        MOCLDY    52  32  46 N17G23    29.85R
DAUPHIN        CLEAR     46  27  46 N7        29.91R
ISLAND LAKE    LGT RAIN  36  32  87 N16G31    29.86R
PILOT MOUND      N/A     54  34  47 N15G21      N/A
THE PAS        PTCLDY    41  27  56 N10       29.98R
THOMPSON       MOCLDY    32  21  64 N8        30.00R WCI  25
WINNIPEG       CLOUDY    54  32  43 N26G35    29.78R
LYNN LAKE      CLEAR     30  23  74 NE5       30.01R
CHURCHILL      FLURRIES  12   9  85 N15G22    30.09R WCI  -4
GILLAM         FLURRIES  21  14  73 N20       30.01  WCI   6
$$
                ***SASKATCHEWAN***

CITY           SKY/WX    TMP DP  RH WIND       PRES   REMARKS
ESTEVAN        CLOUDY    54  32  43 N18G25    29.94R
KINDERSLEY     PTCLDY    54  28  37 NW10      30.08S
LLOYDMINSTER   MOCLDY    55  23  28 NW6       30.05S
PRINCE ALBERT  PTCLDY    52  27  37 N5        30.02R
REGINA         PTCLDY    54  27  35 N12       30.01R
YORKTON        CLEAR     46  28  49 N12       29.95R
N. BATTLEFORD  CLEAR     52  23  32 N6        30.06R
LA RONGE       PTCLDY    46  25  42 N5        30.00S
SASKATOON      PTCLDY    52  25  35 N6        30.04R
SWIFT CURRENT  MOCLDY    50  28  43 N7        30.06R
$$
NOTE: THESE ARE AUTOMATED STATIONS WITH LIMITED QUALITY CONTROL
      "FAIR" INDICATES FEW OR NO CLOUDS BELOW 12,000 FEET WITH NO
      SIGNIFICANT WEATHER AND/OR OBSTRUCTIONS TO VISIBILITY.
      SKY/WX - SKY CONDITION AND SIGNIFICANT WEATHER.
      TMP - AIR TEMPERATURE.    DP   - DEWPOINT TEMPERATURE.
      RH  - RELATIVE HUMIDITY.  PRES - PRESSURE.
      HX  - HEAT INDEX.         WCI  - WIND CHILL INDEX.
$




USA.gov is the U.S. government's official web portal to all federal, state and local government web resources and services.